This demonstration page uses our WeatherBlox Daily Observations layout. Learn more.

Left ArrowRight Arrow

40.92945, -100.16068

Hourly Observations for October 3, 2021

Temp ( °F °C ) Dew Point ( °F °C ) Humidity (%) Winds ( mph kmh ) Pressure ( in mb ) Visibility ( mi km ) Precip ( " mm )
12:15 am 00:15 Clear 50 9.8 48 8.8 94 94 WNW 5 7 30.11 1020 10 16 N/A
12:35 am 00:35 Clear 50 10 48 8.8 92 92 W 6 9 30.11 1020 10 16 N/A
12:55 am 00:55 Clear 49 9.7 48 8.7 94 94 WNW 3 6 30.11 1020 10 16 N/A
1:15 am 01:15 Clear 49 9.4 47 8.4 94 94 WNW 5 7 30.12 1020 10 16 N/A
1:35 am 01:35 Clear 48 8.8 46 8 95 95 WNW 5 7 30.12 1020 10 16 N/A
1:55 am 01:55 Clear 48 8.7 46 8 95 95 W 6 9 30.12 1020 10 16 N/A
2:15 am 02:15 Clear 47 8.5 46 7.6 94 94 WNW 5 7 30.13 1020 10 16 N/A
2:35 am 02:35 Clear 46 7.8 45 7 95 95 NNW 5 7 30.13 1020 10 16 N/A
2:55 am 02:55 Clear 46 8 45 7.2 95 95 N N/A 30.13 1020 10 16 N/A
3:15 am 03:15 Clear 46 7.5 44 6.8 95 95 NNW 5 7 30.13 1020 10 16 N/A
3:35 am 03:35 Clear 45 7.3 44 6.6 95 95 NW 3 6 30.14 1021 10 16 N/A
3:55 am 03:55 Clear 46 7.5 44 6.8 95 95 NW 3 6 30.13 1020 10 16 N/A
4:15 am 04:15 Clear 46 7.5 44 6.7 95 95 WNW 5 7 30.13 1020 10 16 N/A
4:35 am 04:35 Clear 45 7 43 6.2 95 95 WNW 6 9 30.14 1021 10 16 N/A
4:55 am 04:55 Clear 44 6.9 43 6.2 95 95 WNW 6 9 30.13 1020 10 16 N/A
5:15 am 05:15 Clear 46 8 45 7 93 93 WNW 7 11 30.13 1020 10 16 N/A
5:35 am 05:35 Clear 46 7.9 44 6.7 92 92 WNW 8 13 30.13 1020 10 16 N/A
5:55 am 05:55 Clear 46 7.8 44 6.7 93 93 WNW 8 13 30.13 1020 10 16 N/A
6:15 am 06:15 Clear 46 7.7 44 6.6 93 93 WNW 7 11 30.13 1020 10 16 N/A
6:35 am 06:35 Clear 45 7.2 43 6.3 94 94 WNW 7 11 30.15 1021 10 16 N/A
6:55 am 06:55 Clear 46 7.5 44 6.5 93 93 WNW 8 13 30.14 1021 10 16 N/A
7:15 am 07:15 Clear 45 7.2 43 6.1 93 93 WNW 7 11 30.15 1021 10 16 N/A
7:35 am 07:35 Clear 45 7.3 43 6.2 93 93 WNW 8 13 30.16 1021 10 16 N/A
7:55 am 07:55 Sunny 46 7.5 44 6.5 93 93 WNW 6 9 30.15 1021 10 16 N/A
8:15 am 08:15 Sunny 46 7.8 44 6.7 93 93 WNW 6 9 30.15 1021 10 16 N/A
8:35 am 08:35 Sunny 48 8.7 45 7.4 92 92 WNW 6 9 30.14 1021 10 16 N/A
8:55 am 08:55 Sunny 50 9.9 46 8 88 88 WNW 7 11 30.13 1020 10 16 N/A
9:15 am 09:15 Sunny 52 10.9 47 8.2 84 84 WNW 9 15 30.12 1020 10 16 N/A
9:35 am 09:35 Sunny 54 12 48 8.7 80 80 W 9 15 30.12 1020 10 16 N/A
9:55 am 09:55 Sunny 56 13.3 49 9.2 76 76 WNW 7 11 30.11 1020 10 16 N/A
10:15 am 10:15 Sunny 59 14.9 49 9.5 70 70 WNW 6 9 30.10 1019 10 16 N/A
10:35 am 10:35 Sunny 62 16.4 48 8.9 61 61 WNW 7 11 30.08 1019 10 16 N/A
10:55 am 10:55 Sunny 64 18 49 9.2 57 57 NW 6 9 30.07 1018 10 16 N/A
11:15 am 11:15 Sunny 67 19.2 49 9.5 54 54 WNW 8 13 30.06 1018 10 16 N/A
11:35 am 11:35 Sunny 68 20.2 48 9.1 49 49 W 6 9 30.05 1018 10 16 N/A
11:55 am 11:55 Sunny 70 20.9 48 8.7 46 46 W 5 7 30.03 1017 10 16 N/A
12:15 pm 12:15 Sunny 72 22 47 8.3 42 42 NW 9 15 30.02 1017 10 16 N/A
12:35 pm 12:35 Sunny 73 22.7 46 8 39 39 NW 6 9 30.02 1017 10 16 N/A
12:55 pm 12:55 Sunny 74 23.2 46 7.5 37 37 NW 6 9 30.00 1016 10 16 N/A
1:15 pm 13:15 Sunny 75 23.8 45 7.2 35 35 N N/A 29.99 1016 10 16 N/A
1:35 pm 13:35 Sunny 76 24.5 44 6.9 32 32 WNW 5 7 29.98 1015 10 16 N/A
1:55 pm 13:55 Sunny 77 25.1 43 6.1 30 30 W 6 9 29.97 1015 10 16 N/A
2:15 pm 14:15 Sunny 77 25.1 42 5.3 28 28 W 7 11 29.96 1015 10 16 N/A
2:35 pm 14:35 Sunny 78 25.3 39 3.9 25 25 W 6 9 29.95 1014 10 16 N/A
2:55 pm 14:55 Sunny 77 25.1 39 3.9 25 25 N N/A 29.94 1014 10 16 N/A
3:15 pm 15:15 Sunny 77 25.1 39 3.8 25 25 N N/A 29.94 1014 10 16 N/A
3:35 pm 15:35 Sunny 78 25.6 38 3.1 23 23 W 3 6 29.92 1013 10 16 N/A
3:55 pm 15:55 Sunny 78 25.7 38 3.2 23 23 WSW 5 7 29.92 1013 10 16 N/A
4:15 pm 16:15 Sunny 78 25.8 39 3.9 24 24 N N/A 29.92 1013 10 16 N/A
4:35 pm 16:35 Sunny 78 25.8 39 4 25 25 NNW 3 6 29.91 1013 10 16 N/A
4:55 pm 16:55 Sunny 78 25.6 42 5.7 28 28 N N/A 29.91 1013 10 16 N/A
5:15 pm 17:15 Sunny 79 26 42 5.6 27 27 N N/A 29.91 1013 10 16 N/A
5:35 pm 17:35 Sunny 78 25.8 40 4.6 26 26 N N/A 29.90 1013 10 16 N/A
8:55 pm 20:55 Clear 61 16.1 48 8.7 62 62 SSE 3 6 30.00 1016 10 16 N/A
9:15 pm 21:15 Clear 60 15.4 47 8.6 64 64 SSE 3 6 30.00 1016 10 16 N/A
9:35 pm 21:35 Clear 59 15.2 47 8.1 63 63 S 5 7 30.01 1016 10 16 N/A
9:55 pm 21:55 Clear 58 14.5 46 8 65 65 SSE 5 7 30.02 1017 10 16 N/A
10:15 pm 22:15 Clear 58 14.7 46 7.5 62 62 S 3 6 30.03 1017 10 16 N/A
10:35 pm 22:35 Clear 56 13.3 46 7.9 70 70 N N/A 30.04 1017 10 16 N/A
10:55 pm 22:55 Clear 55 12.7 46 7.8 72 72 N N/A 30.05 1017 10 16 N/A
11:15 pm 23:15 Clear 55 12.7 46 7.6 71 71 N N/A 30.06 1018 10 16 N/A
11:35 pm 23:35 Clear 53 11.7 45 7.2 74 74 N N/A 30.07 1018 10 16 N/A
11:55 pm 23:55 Clear 50 10 46 7.5 85 85 N N/A 30.08 1019 10 16 N/A

Powered by AerisWeather